Location: Lafig�re
(44.4503°N, 4.0357°E)
Time: 16:03:18
(UTC+00:00)

ARIANE 5 R/B - Pass Details

Date: 24 September 2020
Orbit: 620 x 657 km, 98.2° (Epoch: 09 October)

Event Time Altitude Azimuth Distance (km) Brightness Sun altitude
Exits shadow 20:20:05 23° 7° (N) 1,352 4.5 -28.7°
Drops below altitude 10° 20:21:47 10° 357° (N) 1,997 5.5 -29.0°
Sets 20:24:01 0° 352° (N) 2,908 6.5 -29.3°
